OPS 4682 DEB, 51488

Orbit data source: Space-Track

OPS 4682 DEB, 51488 is space debris in LEO originally from a launch on Sat, 03 Apr 1965 UTC launched from the Air Force Western Test Range (AFWTR). Debris objects in space refer to the collection of defunct objects orbiting the Earth. Examples of debris include non-operational satellites, rocket bodies, and fragments generated from explosions, collisions, or faulty payload assembly.

Loading next visibility...
Identifier
51488, 1965-027FY
Orbit
LEO
Country
Flag of USUS
Related business
Manufacturer
Unknown
Mission
Spacecraft
Bus & Motor
Unknown
Mass
Unknown
Launch date (UTC)
1965-04-03 (61 years ago)
Launch vehicle
Unknown
Launch site
Air Force Western Test Range (AFWTR)
Object type
Payload
Rocket body
Debris
Shape & HBR
Unknown shape, 0.1 m
Radar Cross Section
Small (<0.1 m²)

Expand to show TLE details & history
Last TLE update: 1 day ago

TLE from 1 day ago
0 OPS 4682 DEB
1 51488U 65027FY  26263.22495253  .00000560  00000-0  17960-2 0  9993
2 51488  90.2489 353.3557 0019018   8.1176 352.0251 13.01474177555719
Epoch: 2026-09-20T05:23Z
TLE epoch observation values (Epoch: 2026-09-20T05:23:55.898Z)
Latitude
-0.00004°
Longitude
-86.7494°
Altitude
1,244.821 km
Speed
7.239 km/s
True Right ascension
23h 33m 25s
True Declination
0° 00' 00"
Sunlit
Object was in full shadow at epoch
Visualization orbit readout
Latitude
Unknown
Longitude
Unknown
Altitude
Unknown
Speed
Unknown
Apparent Right ascension
Unknown
Apparent Declination
Unknown
Sunlit
N/A
Visualization observer readout
Local Sidereal Time
00:09:03
Azimuth
Unknown
Elevation
Unknown
Doppler factor
Unknown
Orbital elements
Apogee altitude
1,267.955 km
Perigee altitude
1,238.927 km
Semi-major axis
7,631.578 km
Eccentricity
0.0019
Inclination
90.2489°
RAAN
353.3557°
Arg. of periapsis
8.1176°
True anomaly
351.99479°
Mean anomaly
352.0251°
Eccentric anomaly
352.00995°
Mean motion
3.25553 °/min
Orbital period
110.58 mins
BSTAR
0.001796
Loading maneuver chart data...
Computing Atmospheric mass density...
Loading historical data...
Loading historical data...
Loading historical data...
Loading historical data...
Loading historical data...
Loading historical data...
Loading historical data...

Documentation

Showing up to 5 results
|